Temperature
10 9 9 9 9 8 8 7 7 6 5 6 5 5 4 4 3 3 3 2 2 2 2 1 1 1 1 1 1 1 0 -0 -0 -1 -1 -1 -1 -1
9 9 8 8 8 7 7 7 6 5 5 5 4 4 3 3 2 2 2 1 1 1 1 0 0 0 -0 0 -0 -0 -1 -1 -1 -2 -2 -2 -2 -2
8 8 8 7 7 6 6 5 5 4 4 3 3 2 2 2 1 1 1 1 1 0 -0 -1 -1 -1 -1 -1 -1 -1 -1 -2 -2 -2 -2 -2 -3 -2
7 7 6 6 6 5 5 4 4 3 3 2 2 1 1 1 0 0 -0 -0 -1 -1 -1 -1 -2 -2 -2 -2 -2 -2 -2 -2 -3 -3 -3 -3 -3 -3
6 5 5 5 4 4 3 3 2 2 2 1 1 0 -0 -0 -1 -1 -1 -2 -2 -2 -2 -2 -2 -2 -2 -2 -2 -3 -3 -3 -3 -3 -3 -3 -3 -3
4 4 4 3 3 2 2 1 1 1 0 -0 -0 -1 -1 -2 -2 -3 -2 -2 -2 -2 -3 -3 -3 -3 -3 -3 -3 -3 -3 -3 -3 -4 -4 -4 -4 -4
3 2 2 2 1 1 1 0 -0 -0 -1 -1 -1 -2 -2 -3 -3 -4 -4 -4 -3 -3 -3 -3 -3 -3 -3 -3 -3 -3 -3 -3 -4 -4 -4 -4 -5 -5
2 1 1 0 -0 -0 -1 -1 -1 -2 -2 -2 -3 -3 -3 -4 -4 -5 -5 -5 -4 -3 -4 -3 -3 -3 -3 -3 -3 -3 -4 -4 -4 -5 -5 -5 -5 -5
0 0 -0 -1 -1 -1 -2 -2 -2 -3 -3 -3 -4 -4 -4 -5 -5 -5 -5 -6 -5 -4 -5 -4 -3 -3 -3 -3 -3 -3 -4 -4 -4 -4 -5 -5 -5 -5
-1 -1 -1 -1 -2 -2 -2 -2 -3 -3 -4 -4 -4 -4 -5 -5 -6 -6 -6 -6 -5 -5 -6 -5 -4 -4 -3 -3 -3 -3 -4 -4 -4 -5 -5 -5 -5 -5
-2 -2 -2 -2 -2 -3 -3 -3 -4 -4 -5 -5 -5 -5 -5 -6 -6 -6 -6 -6 -6 -5 -5 -6 -5 -5 -4 -3 -3 -3 -4 -4 -4 -5 -5 -5 -5 -6
-2 -2 -3 -3 -3 -4 -4 -4 -5 -5 -5 -5 -5 -5 -5 -6 -6 -6 -6 -7 -7 -7 -6 -7 -6 -7 -7 -4 -3 -3 -4 -4 -4 -5 -5 -5 -5 -6
-3 -3 -4 -4 -4 -4 -5 -5 -5 -6 -6 -6 -5 -6 -6 -6 -6 -6 -6 -7 -7 -7 -6 -8 -7 -7 -9 -8 -5 -4 -4 -4 -4 -4 -5 -5 -5 -6
-4 -4 -4 -4 -5 -5 -5 -5 -6 -6 -6 -6 -6 -6 -6 -6 -6 -6 -6 -6 -6 -6 -6 -7 -8 -8 -9 -9 -7 -5 -4 -5 -5 -5 -5 -5 -6 -6
-4 -4 -5 -5 -5 -5 -5 -6 -6 -6 -6 -6 -6 -6 -6 -6 -6 -6 -6 -6 -6 -6 -6 -7 -7 -8 -8 -9 -8 -7 -6 -5 -5 -5 -6 -6 -6 -6
-4 -5 -5 -5 -5 -6 -6 -6 -6 -6 -6 -6 -6 -6 -6 -6 -6 -6 -6 -6 -6 -5 -5 -6 -7 -8 -8 -8 -9 -8 -7 -7 -6 -6 -6 -6 -6 -6
-5 -5 -5 -5 -6 -6 -6 -6 -6 -7 -7 -7 -7 -7 -7 -7 -6 -7 -7 -7 -7 -7 -6 -6 -7 -8 -8 -8 -8 -7 -7 -7 -7 -7 -7 -7 -6 -6
-5 -6 -6 -6 -6 -6 -7 -7 -7 -7 -7 -7 -7 -7 -7 -7 -7 -7 -7 -8 -8 -8 -7 -7 -7 -8 -8 -7 -7 -7 -7 -7 -7 -7 -8 -8 -7 -6
-6 -6 -6 -6 -7 -7 -7 -7 -7 -7 -7 -7 -7 -7 -8 -8 -8 -8 -8 -8 -8 -8 -8 -8 -8 -9 -9 -9 -8 -7 -8 -8 -7 -7 -7 -8 -7 -6
-6 -6 -7 -7 -7 -7 -7 -7 -7 -7 -7 -8 -8 -8 -8 -8 -8 -8 -8 -8 -9 -9 -8 -8 -8 -8 -9 -9 -9 -7 -7 -8 -8 -8 -7 -7 -7 -6
-6 -7 -7 -7 -7 -7 -7 -7 -7 -8 -8 -8 -8 -8 -8 -8 -8 -8 -9 -9 -9 -9 -9 -8 -8 -8 -9 -9 -9 -8 -7 -7 -7 -8 -7 -7 -7 -7
-6 -7 -7 -7 -7 -7 -8 -8 -8 -8 -8 -8 -8 -8 -8 -9 -9 -9 -9 -9 -9 -9 -9 -8 -8 -8 -8 -9 -9 -8 -7 -6 -7 -7 -7 -7 -7 -7
-7 -7 -7 -7 -7 -8 -8 -8 -8 -8 -8 -8 -8 -8 -8 -9 -9 -9 -9 -9 -9 -9 -9 -9 -8 -8 -8 -9 -9 -8 -8 -7 -7 -7 -6 -6 -7 -7
Wind_Speed
4 4 3 2 2 2 3 3 5 5 6 4 3 3 5 6 6 6 6 9 12 14 16 17 18 19 19 19 20 20 21 21 21 21 21 22 22 22
3 4 4 4 3 3 3 2 2 3 3 3 3 2 4 5 7 7 8 11 14 16 17 18 19 19 19 20 20 21 21 21 22 22 22 22 23 23
4 5 5 6 5 4 3 3 2 2 3 1 1 1 3 3 4 7 9 10 12 15 17 18 19 19 20 20 21 21 21 22 22 22 23 23 23 24
6 6 6 5 6 4 3 4 3 2 2 2 1 2 3 3 3 4 7 9 11 14 17 18 19 19 20 20 21 21 21 22 22 23 23 24 24 25
6 7 6 7 6 4 4 4 3 2 2 2 1 1 2 2 3 4 5 7 10 12 15 17 18 19 19 20 21 21 22 22 22 22 23 23 24 25
7 7 7 6 6 5 4 3 3 2 2 1 1 1 2 2 2 3 4 3 4 9 14 16 17 18 19 20 21 22 22 22 22 22 23 23 24 24
8 7 7 7 6 4 3 2 2 1 1 0 1 1 1 2 2 2 3 3 5 5 5 6 9 11 16 20 22 22 22 22 22 22 23 24 24 25
7 6 6 6 5 5 4 2 1 1 1 0 1 2 3 3 2 2 2 3 4 3 3 7 6 9 12 16 20 23 23 23 23 23 24 24 25 25
6 5 4 4 5 3 2 2 2 3 3 2 3 3 3 3 2 3 3 5 7 5 6 10 7 9 12 17 22 23 24 24 24 24 24 24 24 24
5 4 4 3 3 2 2 2 2 3 5 3 4 4 4 4 4 5 5 6 7 6 5 7 7 8 10 13 21 24 24 23 22 22 23 24 24 25
4 3 3 2 1 2 2 3 3 4 6 7 8 10 12 13 11 4 4 5 7 6 3 4 4 5 6 8 15 18 18 20 23 24 25 25 25 24
2 1 1 1 3 4 2 3 4 4 4 5 7 9 9 11 12 5 4 4 5 5 3 3 4 5 6 5 5 9 14 21 24 25 25 25 25 17
2 1 1 3 5 7 6 3 6 5 3 4 5 5 5 4 4 3 2 3 5 7 4 3 4 4 5 7 6 7 8 10 13 17 23 24 24 19
1 1 2 5 7 8 6 6 8 7 3 4 4 4 4 4 4 4 8 9 10 11 12 9 8 8 10 13 11 7 7 8 10 12 12 19 20 22
2 4 6 7 7 6 7 8 6 3 3 3 4 5 4 4 5 6 7 10 12 15 17 17 12 11 12 13 12 12 12 11 10 8 8 9 10 10
3 5 7 7 6 6 6 5 3 3 3 3 4 5 5 5 6 6 7 7 8 9 10 16 15 13 13 14 14 15 12 9 9 10 12 12 10 10
4 3 3 3 3 3 3 3 3 3 4 3 4 6 7 7 7 6 6 7 9 11 11 7 10 12 13 14 14 15 14 14 13 12 12 14 12 10
4 3 3 3 3 3 4 4 4 4 4 4 5 6 7 8 9 8 8 8 10 11 11 10 9 10 9 10 16 15 13 13 12 11 11 14 16 11
2 3 3 3 4 4 4 4 5 5 5 6 7 7 8 8 9 9 9 10 11 11 11 10 9 10 13 15 8 12 11 12 12 13 12 12 16 13
2 3 4 4 4 4 5 5 6 6 6 6 7 8 8 9 9 10 10 11 12 12 12 10 9 10 12 15 15 13 14 14 12 14 14 13 13 17
4 4 4 5 5 5 5 6 6 7 8 8 8 9 8 9 10 10 11 16 15 13 14 13 11 16 13 11 13 13 11 13 16 14 14 15 16 14
5 5 5 5 5 5 6 6 7 7 8 8 9 9 9 9 11 12 12 13 13 13 15 14 13 12 11 14 16 18 18 14 14 21 23 21 14 10
5 5 5 6 6 6 6 7 8 8 8 9 9 9 9 10 11 12 13 13 13 15 15 15 13 11 12 13 15 16 18 18 14 13 12 17 22 26
Wind_Direction
195 180 169 146 136 143 144 166 175 195 214 200 194 191 183 184 197 208 229 253 265 274 280 285 288 289 289 290 290 291 291 290 289 288 287 287 286 285
146 141 132 119 109 104 112 111 151 183 186 168 187 176 183 192 212 226 242 260 270 277 281 284 285 286 288 288 289 288 288 287 287 286 286 286 285 285
119 124 121 116 116 106 102 106 97 116 163 142 142 164 174 193 221 236 251 260 269 277 282 284 285 286 286 287 287 287 286 286 286 286 285 285 285 285
111 113 114 112 107 104 104 99 99 92 132 149 156 186 207 213 222 243 258 265 267 276 283 285 286 286 287 287 286 286 286 285 285 284 284 284 284 284
102 109 110 112 108 104 102 101 101 100 103 137 165 201 234 233 238 252 258 265 273 281 287 289 289 289 289 289 288 288 287 285 284 284 283 283 283 283
87 95 102 108 112 115 113 121 127 123 128 146 185 229 250 254 240 252 273 272 283 292 289 288 290 293 294 294 293 292 289 286 284 283 283 282 281 281
82 82 88 101 112 112 112 119 115 116 132 168 217 269 274 287 271 260 277 296 292 278 279 289 299 294 292 291 292 289 287 286 285 285 284 284 282 281
91 86 93 95 100 99 109 128 145 158 154 209 255 259 269 276 282 293 293 308 298 298 323 297 288 285 284 282 285 288 289 290 289 289 288 286 284 282
93 92 87 85 76 61 45 22 329 294 272 251 244 255 270 271 283 289 276 269 269 277 296 290 280 279 279 283 290 293 294 294 294 293 291 289 287 284
81 80 80 72 75 58 13 342 302 293 283 265 237 250 261 259 246 252 259 271 274 273 264 277 282 278 283 282 289 292 294 295 296 296 295 293 290 287
75 75 75 60 24 346 337 311 304 299 301 297 285 282 283 284 280 269 270 283 292 292 260 257 280 292 286 281 283 290 295 299 301 299 297 295 293 291
63 71 72 23 333 326 327 320 309 304 323 325 308 299 294 290 289 265 228 247 275 290 271 284 291 322 304 278 276 288 293 295 296 296 296 296 295 293
34 13 334 332 326 321 321 311 294 302 304 300 296 294 294 291 293 293 262 233 254 263 274 300 283 277 272 291 288 275 275 282 289 292 294 293 292 289
4 353 332 326 324 321 317 307 309 317 315 300 296 296 299 298 298 302 296 282 264 265 272 273 273 277 282 286 287 286 282 277 279 284 283 287 288 287
343 332 325 322 323 321 314 315 320 318 305 299 297 294 291 290 297 299 291 282 275 269 267 262 259 267 268 273 278 285 294 293 278 270 273 275 275 276
344 324 320 316 313 305 309 314 300 271 281 276 286 292 299 300 296 291 292 298 293 286 262 256 251 255 266 268 273 280 280 278 282 281 281 281 273 266
330 321 313 316 322 319 314 307 305 308 310 300 298 301 303 301 298 296 288 291 287 294 299 282 255 252 254 264 274 274 276 276 275 278 283 285 279 266
329 316 312 316 315 314 315 315 314 311 305 301 299 297 297 298 298 296 290 288 289 291 293 296 297 295 284 261 243 259 267 272 276 276 275 284 287 276
311 301 300 300 298 299 299 298 297 297 296 293 291 291 291 291 291 293 293 291 290 290 290 290 290 292 296 299 270 228 253 277 283 283 278 276 282 284
278 279 284 287 287 288 289 290 291 294 292 290 288 287 286 287 288 288 289 289 291 293 292 286 277 276 280 288 292 283 256 261 275 282 285 282 278 279
282 279 277 278 278 277 279 283 285 287 287 288 286 284 283 283 284 286 288 289 291 291 290 289 282 283 282 283 284 284 276 253 255 270 282 288 290 288
273 274 275 275 275 274 277 280 282 282 284 283 282 282 282 281 282 285 286 288 288 286 286 288 287 286 280 282 284 289 293 290 271 266 264 264 274 280
267 269 271 274 274 274 275 276 278 280 279 279 281 281 281 282 282 282 283 284 285 287 290 293 292 286 280 279 282 286 288 293 295 292 281 268 264 264
Height
1487 1488 1489 1489 1489 1490 1490 1491 1492 1491 1491 1492 1493 1494 1494 1496 1497 1497 1498 1498 1497 1497 1496 1496 1495 1493 1492 1490 1489 1487 1486 1485 1484 1483 1482 1481 1481 1481
1480 1481 1482 1482 1483 1483 1483 1484 1484 1486 1486 1486 1487 1489 1489 1490 1491 1491 1492 1492 1491 1491 1490 1489 1488 1486 1485 1483 1481 1480 1479 1478 1476 1475 1475 1474 1474 1473
1474 1475 1476 1476 1477 1478 1478 1478 1479 1480 1481 1481 1483 1484 1484 1485 1486 1486 1486 1486 1485 1484 1483 1482 1481 1479 1478 1476 1474 1473 1472 1470 1469 1468 1467 1466 1466 1465
1469 1469 1470 1471 1472 1473 1474 1474 1475 1475 1477 1477 1478 1479 1480 1480 1480 1480 1480 1480 1479 1478 1477 1476 1474 1473 1471 1469 1468 1466 1465 1463 1462 1460 1459 1458 1457 1457
1465 1465 1466 1467 1468 1469 1470 1471 1471 1472 1473 1473 1474 1475 1476 1475 1475 1475 1475 1474 1474 1472 1471 1470 1468 1467 1465 1463 1462 1460 1458 1456 1454 1453 1451 1450 1449 1448
1462 1463 1463 1465 1465 1466 1467 1467 1468 1469 1470 1470 1470 1471 1471 1471 1471 1470 1469 1469 1468 1467 1465 1464 1463 1461 1460 1458 1456 1454 1451 1449 1447 1445 1444 1442 1441 1439
1460 1461 1462 1463 1464 1464 1465 1466 1466 1466 1467 1467 1467 1467 1467 1467 1467 1466 1465 1463 1462 1461 1459 1458 1457 1455 1454 1452 1449 1447 1444 1442 1440 1438 1436 1434 1432 1431
1460 1460 1461 1462 1463 1463 1463 1464 1464 1464 1464 1464 1464 1464 1463 1463 1462 1462 1461 1459 1456 1457 1454 1452 1451 1449 1447 1445 1442 1440 1437 1435 1433 1431 1428 1426 1424 1422
1459 1460 1461 1461 1462 1462 1462 1462 1462 1461 1462 1462 1461 1460 1460 1459 1459 1458 1456 1455 1452 1451 1448 1444 1444 1441 1440 1437 1436 1433 1431 1428 1425 1423 1420 1418 1415 1413
1460 1460 1460 1460 1460 1460 1460 1460 1459 1459 1458 1458 1457 1456 1456 1455 1454 1454 1452 1449 1447 1446 1444 1439 1436 1434 1432 1430 1429 1426 1423 1421 1418 1415 1412 1409 1407 1404
1460 1460 1460 1459 1459 1458 1458 1457 1456 1455 1455 1454 1454 1453 1453 1452 1451 1449 1447 1445 1442 1440 1438 1434 1430 1426 1423 1422 1420 1418 1416 1413 1410 1407 1403 1400 1398 1395
1459 1459 1458 1458 1457 1456 1455 1454 1453 1452 1452 1451 1450 1450 1449 1448 1447 1445 1444 1441 1438 1435 1432 1430 1425 1422 1414 1411 1411 1410 1408 1405 1402 1398 1395 1392 1389 1386
1458 1458 1457 1456 1455 1454 1453 1452 1451 1450 1448 1448 1447 1446 1445 1444 1442 1441 1440 1437 1434 1431 1429 1426 1421 1418 1414 1405 1401 1401 1399 1396 1392 1389 1386 1384 1381 1378
1457 1456 1455 1454 1453 1451 1450 1449 1448 1447 1445 1444 1443 1442 1441 1440 1438 1437 1435 1432 1430 1427 1424 1421 1417 1413 1408 1402 1395 1392 1391 1388 1384 1380 1378 1375 1373 1370
1455 1454 1453 1452 1450 1449 1448 1446 1445 1444 1442 1441 1440 1438 1437 1435 1433 1431 1429 1426 1424 1421 1418 1415 1411 1407 1403 1397 1391 1385 1381 1378 1377 1373 1370 1366 1363 1360
1453 1452 1451 1449 1448 1446 1445 1444 1442 1441 1439 1438 1436 1434 1433 1430 1428 1426 1423 1419 1416 1413 1412 1408 1405 1401 1396 1391 1386 1380 1376 1372 1368 1366 1361 1357 1354 1352
1451 1450 1448 1447 1445 1444 1442 1441 1439 1438 1436 1434 1432 1430 1428 1425 1423 1420 1417 1414 1410 1405 1402 1400 1398 1394 1389 1385 1379 1373 1369 1365 1362 1358 1354 1348 1344 1343
1449 1447 1446 1444 1442 1441 1439 1438 1436 1435 1433 1431 1428 1426 1423 1420 1417 1415 1412 1408 1404 1400 1396 1393 1389 1384 1380 1375 1372 1366 1362 1358 1354 1351 1347 1341 1334 1332
1446 1445 1443 1441 1440 1438 1436 1434 1433 1431 1429 1427 1424 1421 1419 1415 1412 1409 1406 1402 1398 1394 1390 1387 1383 1379 1373 1365 1361 1361 1356 1350 1346 1342 1338 1334 1327 1322
1444 1442 1440 1438 1437 1435 1433 1431 1429 1427 1425 1422 1419 1417 1414 1410 1407 1404 1400 1396 1392 1387 1383 1379 1377 1374 1369 1362 1353 1347 1348 1344 1339 1334 1329 1324 1319 1314
1441 1439 1437 1435 1433 1431 1429 1427 1425 1422 1420 1417 1414 1411 1408 1405 1401 1398 1394 1390 1386 1381 1376 1371 1369 1367 1361 1355 1347 1338 1336 1335 1332 1327 1321 1316 1309 1304
1437 1435 1434 1432 1429 1427 1425 1423 1420 1417 1415 1412 1409 1406 1402 1399 1395 1391 1387 1383 1379 1374 1369 1363 1360 1357 1353 1348 1340 1332 1324 1321 1320 1317 1313 1309 1305 1297
1434 1432 1430 1427 1425 1423 1420 1418 1415 1412 1409 1406 1403 1399 1396 1392 1389 1385 1380 1376 1372 1367 1362 1356 1351 1347 1343 1338 1332 1324 1318 1312 1308 1303 1299 1298 1295 1290